Location: Newark
(14.9306°N, 3.4333°E)
Time: 01:15:11
(UTC+00:00)

ISS - Visible Passes

Search period start: 22 October 2019 00:00
Search period end: 01 November 2019 00:00
Orbit: 411 x 421 km, 51.6° (Epoch: 21 October)

Date Brightness Start Highest point End Pass type
(mag) Time Alt. Az. Time Alt. Az. Time Alt. Az.
22 Oct -3.9 04:41:55 14° SW 04:44:43 74° NW 04:48:04 10° NNE visible
23 Oct -2.0 03:57:08 33° E 03:57:08 33° E 03:59:24 10° NE visible
24 Oct -1.8 04:44:59 15° NNW 04:44:59 15° NNW 04:46:30 10° N visible
